Flag for Germany Weather past 2 weeks in Hagen, North Rhine-Westphalia, Germany

48 °F

Light rain. Passing clouds.

Feels Like: 40 °F
Forecast: 45 / 53 °F
Wind: 24 mph from Southwest

Location: Dortmund / Wickede

Current Time: Nov 30, 2015 at 6:39:25 PM

Latest Report: Nov 30, 2015 at 5:50 PM

Visibility: N/A

Pressure: 29.83 "Hg

Humidity: 82%

Dew point: 43 °F

Location of HagenLocation

Historic Weather in Hagen — Graph


Hagen temperature yesterday

Maximum temperature yesterday: 52 °F (at 9:50 PM)
Minimum temperature yesterday: 45 °F (at 5:20 AM)
Average temperature yesterday: 49 °F

Past Weeks' High & Low Weather Summary

High59 °F (Nov 17, 9:20 PM)94% (Nov 15, 6:50 PM)30.24 "Hg (Nov 15, 6:50 PM)
Low32 °F (Nov 22, 6:20 AM)57% (Nov 30, 7:50 AM)29.39 "Hg (Nov 21, 5:20 AM)
Average44 °F77%29.84 "Hg
* Reported Nov 15 5:20 PM — Nov 30 5:20 PM, Hagen, Weather by CustomWeather, © 2015

Note: Actual official high and low records may vary slightly from our data, if they occured in-between our weather recording intervals... More about our weather records


Hagen weather history for previous 24 hours

Time TempWeatherWind HumidityBarometerVisibility
5:20 PM
Mon, Nov 30
48 °FLight rain. Passing clouds.24 mph87%29.83 "HgN/A
4:50 PM50 °FLight rain. Passing clouds.26 mph82%29.86 "HgN/A
4:20 PM48 °FLight rain. Partly sunny.25 mph87%29.86 "Hg6 mi
3:50 PM50 °FLight rain. Partly sunny.26 mph82%29.86 "HgN/A
3:20 PM48 °FLight rain. Partly sunny.24 mph87%29.89 "HgN/A
2:50 PM48 °FLight rain. Partly sunny.21 mph82%29.89 "Hg5 mi
2:20 PM46 °FLight rain. Partly sunny.21 mph87%29.92 "Hg4 mi
1:50 PM43 °FLight rain. Broken clouds.13 mph87%29.95 "Hg4 mi
1:20 PM43 °FLight rain. Partly sunny.8 mph87%29.98 "Hg4 mi
12:50 PM43 °FLight rain. Partly sunny.7 mph81%30.01 "HgN/A
12:20 PM43 °FLight rain. Partly sunny.13 mph81%30.04 "HgN/A
11:50 AM45 °FLight rain. Partly sunny.17 mph66%30.04 "HgN/A
11:20 AM45 °FSunny.14 mph66%30.04 "Hg10 mi
10:50 AM45 °FSunny.15 mph66%30.04 "Hg10 mi
10:20 AM45 °FSunny.13 mph61%30.07 "Hg10 mi
9:50 AM45 °FSunny.14 mph61%30.07 "Hg10 mi
9:20 AM45 °FPartly sunny.10 mph61%30.07 "HgN/A
8:50 AM45 °FPartly sunny.10 mph61%30.07 "HgN/A
8:20 AM45 °FPassing clouds.15 mph61%30.07 "HgN/A
7:50 AM45 °FPassing clouds.17 mph57%30.04 "HgN/A
7:20 AM45 °FClear.18 mph66%30.04 "Hg10 mi
6:50 AM45 °FPassing clouds.16 mph61%30.01 "HgN/A
6:20 AM45 °FPassing clouds.16 mph66%30.01 "HgN/A
5:50 AM45 °FPassing clouds.15 mph71%29.98 "HgN/A
5:20 AM45 °FPassing clouds.17 mph71%29.98 "HgN/A
10:50 PM
Sun, Nov 29
46 °FRain. Passing clouds.13 mph87%29.77 "Hg2 mi
10:20 PM45 °FRain. Passing clouds.22 mph87%29.74 "Hg3 mi
9:50 PM52 °FRain. Passing clouds.36 mph72%29.68 "Hg4 mi
9:20 PM50 °FLight rain. Passing clouds.36 mph82%29.68 "HgN/A
8:50 PM50 °FLight rain. Passing clouds.37 mph76%29.68 "HgN/A
8:20 PM50 °FLight rain. Passing clouds.33 mph76%29.68 "HgN/A
7:50 PM50 °FLight rain. Passing clouds.33 mph76%29.68 "HgN/A
7:20 PM50 °FLight rain. Passing clouds.30 mph76%29.71 "HgN/A
6:50 PM50 °FLight rain. Passing clouds.29 mph76%29.74 "HgN/A
6:20 PM50 °FPassing clouds.30 mph76%29.74 "HgN/A
Weather by CustomWeather, © 2015

See weather overviewHow to use our weather pages